Hourly Weather Kozlynychi

Today, 29 October, Thursday

Time Temperature Precipitation Wind Pressure Humidity
00:00 +9°C° 0 mm 2 mps 746 mmHg 93%
01:00 +9°C° 0 mm 2 mps 746 mmHg 93%
02:00 +9°C° 0 mm 2 mps 745 mmHg 94%
03:00 +8°C° 0 mm 2 mps 745 mmHg 94%
04:00 +8°C° 0 mm 2 mps 745 mmHg 94%
05:00 +8°C° 0 mm 2 mps 745 mmHg 94%
06:00 +8°C° 0 mm 2 mps 745 mmHg 94%
07:00 +8°C° 0 mm 2 mps 745 mmHg 94%
08:00 +8°C° 0 mm 2 mps 745 mmHg 94%
09:00 +9°C° 0 mm 2 mps 745 mmHg 89%
10:00 +12°C° 0 mm 2 mps 745 mmHg 83%
11:00 +13°C° 0 mm 2 mps 745 mmHg 78%
12:00 +14°C° 0 mm 2 mps 745 mmHg 75%
13:00 +14°C° 0 mm 2 mps 744 mmHg 72%
14:00 +14°C° 0 mm 3 mps 744 mmHg 69%
15:00 +14°C° 0 mm 2 mps 744 mmHg 72%
16:00 +13°C° 0 mm 2 mps 744 mmHg 75%
17:00 +12°C° 0 mm 2 mps 744 mmHg 78%
18:00 +12°C° 0 mm 2 mps 744 mmHg 79%
19:00 +10°C° 0 mm 2 mps 744 mmHg 81%
20:00 +10°C° 0 mm 2 mps 744 mmHg 82%
21:00 +10°C° 0 mm 2 mps 744 mmHg 82%
22:00 +10°C° 0 mm 2 mps 744 mmHg 82%
23:00 +10°C° 0 mm 3 mps 744 mmHg 82%

Tomorrow, 30 October, Friday

Time Temperature Precipitation Wind Pressure Humidity
00:00 +10°C° 0 mm 3 mps 745 mmHg 83%
01:00 +10°C° 0 mm 3 mps 745 mmHg 83%
02:00 +10°C° 0 mm 3 mps 745 mmHg 84%
03:00 +9°C° 0 mm 3 mps 745 mmHg 83%
04:00 +8°C° 0 mm 4 mps 745 mmHg 83%
05:00 +7°C° 0 mm 4 mps 745 mmHg 82%
06:00 +7°C° 0 mm 4 mps 746 mmHg 82%
07:00 +6°C° 0 mm 4 mps 746 mmHg 82%
08:00 +7°C° 0 mm 3 mps 747 mmHg 83%
09:00 +7°C° 0 mm 4 mps 747 mmHg 78%
10:00 +8°C° 0 mm 4 mps 747 mmHg 74%
11:00 +10°C° 0 mm 4 mps 747 mmHg 70%
12:00 +10°C° 0 mm 4 mps 747 mmHg 68%
13:00 +10°C° 0 mm 4 mps 747 mmHg 67%
14:00 +10°C° 0 mm 5 mps 746 mmHg 65%
15:00 +10°C° 0 mm 4 mps 746 mmHg 67%
16:00 +9°C° 0 mm 3 mps 746 mmHg 70%
17:00 +9°C° 0 mm 3 mps 746 mmHg 72%
18:00 +8°C° 0 mm 2 mps 746 mmHg 74%
19:00 +8°C° 0 mm 2 mps 746 mmHg 76%
20:00 +8°C° 0 mm 2 mps 746 mmHg 79%
21:00 +8°C° 0 mm 1 mps 746 mmHg 79%
22:00 +8°C° 0 mm 1 mps 746 mmHg 80%
23:00 +8°C° 0 mm 1 mps 746 mmHg 80%

Day after tomorrow, 31 October, Saturday

Time Temperature Precipitation Wind Pressure Humidity
00:00 +8°C° 0 mm 1 mps 745 mmHg 82%
01:00 +7°C° 0 mm 1 mps 745 mmHg 85%
02:00 +7°C° 0 mm 1 mps 745 mmHg 87%
03:00 +7°C° 0 mm 1 mps 745 mmHg 88%
04:00 +6°C° 0 mm 1 mps 745 mmHg 90%
05:00 +6°C° 0 mm 1 mps 746 mmHg 91%
06:00 +6°C° 0 mm 1 mps 746 mmHg 90%
07:00 +6°C° 0 mm 1 mps 746 mmHg 89%
08:00 +5°C° 0 mm 2 mps 747 mmHg 89%
09:00 +6°C° 0.3 mm 2 mps 747 mmHg 88%
10:00 +6°C° 0.3 mm 2 mps 747 mmHg 88%
11:00 +7°C° 0.3 mm 3 mps 748 mmHg 88%
12:00 +8°C° 0.2 mm 3 mps 748 mmHg 83%
13:00 +8°C° 0.2 mm 3 mps 748 mmHg 78%
14:00 +9°C° 0.2 mm 3 mps 748 mmHg 73%
15:00 +8°C° 0.1 mm 3 mps 748 mmHg 77%
16:00 +8°C° 0.1 mm 2 mps 748 mmHg 80%
17:00 +7°C° 0.1 mm 2 mps 749 mmHg 84%
18:00 +6°C° 0 mm 2 mps 749 mmHg 87%
19:00 +6°C° 0 mm 2 mps 750 mmHg 90%
20:00 +5°C° 0 mm 2 mps 750 mmHg 93%
21:00 +5°C° 0 mm 2 mps 750 mmHg 94%
22:00 +4°C° 0 mm 2 mps 751 mmHg 94%
23:00 +4°C° 0 mm 2 mps 751 mmHg 95%

1 November, Sunday

Time Temperature Precipitation Wind Pressure Humidity
00:00 +4°C° 0 mm 2 mps 751 mmHg 95%
01:00 +4°C° 0 mm 2 mps 751 mmHg 95%
02:00 +4°C° 0 mm 2 mps 752 mmHg 95%
03:00 +3°C° 0 mm 2 mps 752 mmHg 95%
04:00 +3°C° 0 mm 2 mps 752 mmHg 95%
05:00 +3°C° 0 mm 2 mps 752 mmHg 95%
06:00 +3°C° 0 mm 2 mps 752 mmHg 95%
07:00 +3°C° 0 mm 2 mps 752 mmHg 95%
08:00 +3°C° 0 mm 2 mps 752 mmHg 95%
09:00 +5°C° 0 mm 2 mps 752 mmHg 91%
10:00 +6°C° 0 mm 2 mps 752 mmHg 87%
11:00 +8°C° 0 mm 2 mps 752 mmHg 83%
12:00 +9°C° 0 mm 2 mps 752 mmHg 81%
13:00 +9°C° 0 mm 2 mps 752 mmHg 78%
14:00 +10°C° 0 mm 2 mps 752 mmHg 76%
15:00 +9°C° 0 mm 2 mps 751 mmHg 80%
16:00 +9°C° 0 mm 1 mps 751 mmHg 84%
17:00 +8°C° 0 mm 1 mps 751 mmHg 87%
18:00 +8°C° 0 mm 1 mps 751 mmHg 88%
19:00 +8°C° 0 mm 1 mps 751 mmHg 89%
20:00 +7°C° 0 mm 1 mps 751 mmHg 90%
21:00 +7°C° 0 mm 1 mps 751 mmHg 90%
22:00 +6°C° 0 mm 1 mps 751 mmHg 90%
23:00 +5°C° 0 mm 0 mps 751 mmHg 90%

2 November, Monday

Time Temperature Precipitation Wind Pressure Humidity
00:00 +5°C° 0 mm 0 mps 751 mmHg 90%
01:00 +5°C° 0 mm 0 mps 750 mmHg 90%
02:00 +5°C° 0 mm 0 mps 750 mmHg 90%
03:00 +4°C° 0 mm 0 mps 750 mmHg 90%
04:00 +4°C° 0 mm 0 mps 750 mmHg 90%
05:00 +4°C° 0 mm 0 mps 750 mmHg 90%
06:00 +4°C° 0 mm 0 mps 750 mmHg 91%
07:00 +5°C° 0 mm 1 mps 750 mmHg 92%
08:00 +5°C° 0 mm 1 mps 751 mmHg 93%
09:00 +7°C° 0 mm 1 mps 751 mmHg 88%
10:00 +7°C° 0 mm 2 mps 751 mmHg 83%
11:00 +9°C° 0 mm 2 mps 751 mmHg 79%
12:00 +9°C° 0 mm 2 mps 751 mmHg 77%
13:00 +9°C° 0 mm 2 mps 751 mmHg 76%
14:00 +10°C° 0 mm 2 mps 750 mmHg 75%
15:00 +9°C° 0 mm 2 mps 750 mmHg 78%
16:00 +9°C° 0 mm 2 mps 750 mmHg 82%
17:00 +8°C° 0 mm 2 mps 750 mmHg 86%
18:00 +8°C° 0 mm 2 mps 750 mmHg 87%
19:00 +8°C° 0 mm 2 mps 751 mmHg 88%
20:00 +8°C° 0 mm 2 mps 751 mmHg 89%
21:00 +7°C° 0 mm 2 mps 751 mmHg 91%
22:00 +7°C° 0 mm 2 mps 751 mmHg 92%
23:00 +6°C° 0 mm 2 mps 751 mmHg 94%

3 November, Tuesday

Time Temperature Precipitation Wind Pressure Humidity
00:00 +6°C° 0 mm 2 mps 751 mmHg 94%
01:00 +6°C° 0 mm 2 mps 751 mmHg 95%
02:00 +6°C° 0 mm 2 mps 751 mmHg 95%
03:00 +6°C° 0 mm 2 mps 751 mmHg 95%
04:00 +6°C° 0 mm 2 mps 751 mmHg 95%
05:00 +7°C° 0 mm 2 mps 751 mmHg 95%
06:00 +7°C° 0 mm 2 mps 751 mmHg 95%
07:00 +7°C° 0 mm 2 mps 751 mmHg 94%
08:00 +7°C° 0 mm 2 mps 751 mmHg 94%
09:00 +8°C° 0 mm 3 mps 751 mmHg 91%
10:00 +9°C° 0 mm 3 mps 751 mmHg 88%
11:00 +10°C° 0 mm 4 mps 751 mmHg 86%
12:00 +10°C° 0 mm 4 mps 751 mmHg 82%
13:00 +10°C° 0 mm 4 mps 751 mmHg 78%
14:00 +10°C° 0 mm 4 mps 751 mmHg 75%
15:00 +10°C° 0 mm 3 mps 751 mmHg 76%
16:00 +9°C° 0 mm 3 mps 751 mmHg 78%
17:00 +9°C° 0 mm 3 mps 751 mmHg 80%
18:00 +8°C° 0 mm 3 mps 752 mmHg 81%
19:00 +8°C° 0 mm 3 mps 752 mmHg 83%
20:00 +8°C° 0 mm 3 mps 752 mmHg 84%
21:00 +7°C° 0 mm 3 mps 752 mmHg 84%
22:00 +7°C° 0 mm 3 mps 752 mmHg 85%
23:00 +7°C° 0 mm 3 mps 753 mmHg 85%
Show more